Location: Brede
(50.9167°N, 0.6000°E)
Time: 20:05:32
(UTC+00:00)

Vanguard 1 Rocket - Pass Details

Date: 04 December 2020
Orbit: 655 x 4221 km, 34.3° (Epoch: 17 January)

Event Time Altitude Azimuth Distance (km) Brightness Sun altitude
Exits shadow 04:29:44 31° 241° (WSW) 5,199 10.7 -29.3°
Maximum altitude 04:37:57 40° 205° (SSW) 4,193 10.5 -28.0°
Drops below altitude 10° 04:51:19 10° 142° (SE) 4,779 11.6 -25.9°
Sets 04:54:33 0° 135° (SE) 5,377 12.1 -25.4°
